,,,PA_Meas_PMT16A,,PR_Meas_QMR101_102,,RH_Meas_QMH101,,SR_Meas_QMS101,,TA_Meas_QMH101,,GenWind,,GenWind,
date,time,status,PA,status,PR,status,RH,status,SR,status,TA,status,DirAvg,status,SpdAvg,
2009-03-12, 00:00:05,VALID,1001.05,VALID,0,VALID,94.1724,VALID,0,VALID,24.3275,VALID,91,VALID,0.328125,
2009-03-12, 00:01:05,VALID,1001.06,VALID,0,VALID,94.1648,VALID,0,VALID,24.3062,VALID,91,VALID,0.394922,
2009-03-12, 00:02:05,VALID,1001.07,VALID,0,VALID,94.18,VALID,0,VALID,24.308,VALID,91,VALID,0.292188,
2009-03-12, 00:03:05,VALID,1001.04,VALID,0,VALID,94.1953,VALID,0,VALID,24.308,VALID,50,VALID,0.380859,
2009-03-12, 00:04:05,VALID,1001.06,VALID,0,VALID,94.2029,VALID,0,VALID,24.308,VALID,46,VALID,0.442187,
2009-03-12, 00:05:05,VALID,1001.04,VALID,0,VALID,94.2182,VALID,0,VALID,24.3062,VALID,33,VALID,0.49375,
2009-03-12, 00:06:05,VALID,1001.03,VALID,0,VALID,94.2105,VALID,0,VALID,24.3275,VALID,27,VALID,0.579297,
2009-03-12, 00:07:05,VALID,1001.01,VALID,0,VALID,94.2411,VALID,0,VALID,24.3062,VALID,15,VALID,0.777734,
2009-03-12, 00:08:05,VALID,1001.01,VALID,0,VALID,94.3174,VALID,0,VALID,24.3257,VALID,11,VALID,0.967969,
2009-03-12, 00:09:05,VALID,1001.01,VALID,0,VALID,94.2563,VALID,0,VALID,24.3257,VALID,10,VALID,1.31016,
2009-03-12, 00:10:05,VALID,1001.01,VALID,0,VALID,94.2258,VALID,0,VALID,24.3275,VALID,16,VALID,1.29062,
2009-03-12, 00:11:05,VALID,1000.97,VALID,0,VALID,94.2029,VALID,0,VALID,24.3275,VALID,18,VALID,1.46875,
2009-03-12, 00:12:05,VALID,1000.99,VALID,0,VALID,94.1953,VALID,0,VALID,24.308,VALID,24,VALID,1.29766,
2009-03-12, 00:13:05,VALID,1000.97,VALID,0,VALID,94.264,VALID,0,VALID,24.3275,VALID,26,VALID,1.20898,
2009-03-12, 00:14:05,VALID,1001,VALID,0,VALID,94.264,VALID,0,VALID,24.308,VALID,34,VALID,0.851563,
2009-03-12, 00:15:05,VALID,1001.01,VALID,0,VALID,94.264,VALID,0,VALID,24.2866,VALID,35,VALID,0.985937,
2009-03-12, 00:16:05,VALID,1001.01,VALID,0,VALID,94.2563,VALID,0,VALID,24.2885,VALID,33,VALID,0.932813,
2009-03-12, 00:17:05,VALID,1001.01,VALID,0,VALID,94.119,VALID,0,VALID,24.269,VALID,31,VALID,0.973828,
2009-03-12, 00:18:05,VALID,1000.98,VALID,0,VALID,94.1877,VALID,0,VALID,24.2476,VALID,33,VALID,0.597266,
2009-03-12, 00:19:05,VALID,1000.99,VALID,0,VALID,94.1953,VALID,0,VALID,24.269,VALID,33,VALID,0.569531,
2009-03-12, 00:20:05,VALID,1001.01,VALID,0,VALID,94.2334,VALID,0,VALID,24.2476,VALID,34,VALID,0.529688,
2009-03-12, 00:21:05,VALID,1000.99,VALID,0,VALID,94.1648,VALID,0,VALID,24.269,VALID,48,VALID,0.482422,
2009-03-12, 00:22:05,VALID,1001.01,VALID,0,VALID,94.1266,VALID,0,VALID,24.2476,VALID,48,VALID,0.483984,
2009-03-12, 00:23:05,VALID,1001,VALID,0,VALID,94.119,VALID,0,VALID,24.2281,VALID,49,VALID,0.447656,
2009-03-12, 00:24:05,VALID,1000.99,VALID,0,VALID,94.1495,VALID,0,VALID,24.269,VALID,49,VALID,0.288672,
2009-03-12, 00:25:05,VALID,1001.01,VALID,0,VALID,94.1114,VALID,0.112286,VALID,24.2476,VALID,49,VALID,0.310156,
2009-03-12, 00:26:05,VALID,1001.02,VALID,0,VALID,94.1724,VALID,0,VALID,24.269,VALID,49,VALID,0.196094,
2009-03-12, 00:27:05,VALID,1001.02,VALID,0,VALID,94.2029,VALID,0,VALID,24.2671,VALID,49,VALID,0.184766,
2009-03-12, 00:28:05,VALID,1001.01,VALID,0,VALID,94.1953,VALID,0,VALID,24.2885,VALID,117,VALID,0.554297,
2009-03-12, 00:29:05,VALID,1000.98,VALID,0,VALID,94.0885,VALID,0,VALID,24.2671,VALID,117,VALID,0.553906,
2009-03-12, 00:30:05,VALID,1000.97,VALID,0,VALID,94.1114,VALID,0,VALID,24.308,VALID,132,VALID,0.903516,
2009-03-12, 00:31:05,VALID,1000.99,VALID,0,VALID,93.9893,VALID,0,VALID,24.2885,VALID,132,VALID,0.748438,
2009-03-12, 00:32:05,VALID,1000.96,VALID,0,VALID,93.8748,VALID,0,VALID,24.2495,VALID,130,VALID,0.68125,
2009-03-12, 00:33:05,VALID,1000.97,VALID,0,VALID,93.8748,VALID,0,VALID,24.2476,VALID,130,VALID,0.563672,
2009-03-12, 00:34:05,VALID,1000.98,VALID,0,VALID,93.8977,VALID,0,VALID,24.2495,VALID,130,VALID,0.526953,
2009-03-12, 00:35:05,VALID,1000.99,VALID,0,VALID,93.974,VALID,0,VALID,24.269,VALID,130,VALID,0.298438,
2009-03-12, 00:36:05,VALID,1000.95,VALID,0,VALID,94.0427,VALID,0,VALID,24.269,VALID,132,VALID,0.367578,
2009-03-12, 00:37:05,VALID,1000.96,VALID,0,VALID,94.1571,VALID,0,VALID,24.2885,VALID,135,VALID,0.661719,
2009-03-12, 00:38:05,VALID,1000.99,VALID,0,VALID,94.2334,VALID,0,VALID,24.347,VALID,145,VALID,0.38125,
2009-03-12, 00:39:05,VALID,1000.98,VALID,0,VALID,94.2182,VALID,0,VALID,24.347,VALID,161,VALID,0.774609,
2009-03-12, 00:40:05,VALID,1000.92,VALID,0,VALID,94.2411,VALID,0,VALID,24.3452,VALID,170,VALID,0.865625,
2009-03-12, 00:41:05,VALID,1000.92,VALID,0,VALID,94.1266,VALID,0,VALID,24.3666,VALID,171,VALID,1.27695,
2009-03-12, 00:42:05,VALID,1000.9,VALID,0,VALID,94.1037,VALID,0,VALID,24.3861,VALID,160,VALID,1.32891,
2009-03-12, 00:43:05,VALID,1000.89,VALID,0,VALID,94.1648,VALID,0,VALID,24.4251,VALID,161,VALID,0.901953,
2009-03-12, 00:44:05,VALID,1000.83,VALID,0,VALID,94.0961,VALID,0,VALID,24.4251,VALID,156,VALID,0.923437,
2009-03-12, 00:45:05,VALID,1000.8,VALID,0,VALID,94.1495,VALID,0,VALID,24.4233,VALID,160,VALID,0.462891,
2009-03-12, 00:46:05,VALID,1000.8,VALID,0,VALID,94.1037,VALID,0,VALID,24.4446,VALID,152,VALID,0.913672,
2009-03-12, 00:47:05,VALID,1000.78,VALID,0,VALID,94.0351,VALID,0,VALID,24.4446,VALID,160,VALID,0.957031,
2009-03-12, 00:48:05,VALID,1000.77,VALID,0,VALID,93.9435,VALID,0,VALID,24.4446,VALID,175,VALID,0.841406,
2009-03-12, 00:49:05,VALID,1000.76,VALID,0,VALID,94.0045,VALID,0,VALID,24.4446,VALID,164,VALID,0.925,
2009-03-12, 00:50:05,VALID,1000.74,VALID,0,VALID,94.0351,VALID,0,VALID,24.4642,VALID,168,VALID,0.550781,
2009-03-12, 00:51:05,VALID,1000.7,VALID,0,VALID,94.0427,VALID,0,VALID,24.4642,VALID,170,VALID,0.808594,
2009-03-12, 00:52:05,VALID,1000.69,VALID,0,VALID,93.8901,VALID,0,VALID,24.4446,VALID,169,VALID,0.840625,
2009-03-12, 00:53:05,VALID,1000.67,VALID,0,VALID,93.974,VALID,0,VALID,24.4446,VALID,142,VALID,0.687891,
2009-03-12, 00:54:05,VALID,1000.64,VALID,0,VALID,93.913,VALID,0,VALID,24.4233,VALID,134,VALID,0.840625,
2009-03-12, 00:55:05,VALID,1000.62,VALID,0,VALID,93.9283,VALID,0,VALID,24.4446,VALID,134,VALID,0.641406,
2009-03-12, 00:56:05,VALID,1000.63,VALID,0,VALID,94.0274,VALID,0,VALID,24.4642,VALID,138,VALID,0.575391,
2009-03-12, 00:57:05,VALID,1000.6,VALID,0,VALID,93.9435,VALID,0,VALID,24.4642,VALID,138,VALID,0.749219,
2009-03-12, 00:58:05,VALID,1000.57,VALID,0,VALID,93.9054,VALID,0,VALID,24.4446,VALID,140,VALID,0.670313,
2009-03-12, 00:59:05,VALID,1000.49,VALID,0,VALID,93.8748,VALID,0,VALID,24.4446,VALID,109,VALID,0.705859,
2009-03-12, 01:00:05,VALID,1000.54,VALID,0,VALID,93.8443,VALID,0,VALID,24.4251,VALID,102,VALID,0.785937,
2009-03-12, 01:01:05,VALID,1000.47,VALID,0,VALID,93.8214,VALID,0,VALID,24.4056,VALID,113,VALID,0.841406,
2009-03-12, 01:02:05,VALID,1000.44,VALID,0,VALID,93.8977,VALID,0,VALID,24.4056,VALID,112,VALID,0.652344,
2009-03-12, 01:03:05,VALID,1000.45,VALID,0,VALID,93.7528,VALID,0,VALID,24.3666,VALID,99,VALID,1.01328,
2009-03-12, 01:04:05,VALID,1000.44,VALID,0,VALID,93.7451,VALID,0,VALID,24.3666,VALID,111,VALID,0.797656,
2009-03-12, 01:05:05,VALID,1000.43,VALID,0,VALID,93.768,VALID,0,VALID,24.347,VALID,113,VALID,0.691406,
2009-03-12, 01:06:05,VALID,1000.45,VALID,0,VALID,93.7985,VALID,0,VALID,24.347,VALID,119,VALID,0.394922,
2009-03-12, 01:07:05,VALID,1000.46,VALID,0,VALID,93.768,VALID,0,VALID,24.347,VALID,122,VALID,0.475391,
2009-03-12, 01:08:05,VALID,1000.44,VALID,0,VALID,93.8443,VALID,0,VALID,24.3257,VALID,122,VALID,0.632813,
2009-03-12, 01:09:05,VALID,1000.44,VALID,0,VALID,93.8214,VALID,0,VALID,24.3275,VALID,126,VALID,0.483984,
2009-03-12, 01:10:05,VALID,1000.42,VALID,0,VALID,93.8062,VALID,0,VALID,24.3062,VALID,116,VALID,0.636328,
2009-03-12, 01:11:05,VALID,1000.38,VALID,0,VALID,93.7146,VALID,0,VALID,24.308,VALID,115,VALID,0.619141,
2009-03-12, 01:12:05,VALID,1000.35,VALID,0,VALID,93.7375,VALID,0,VALID,24.2885,VALID,115,VALID,0.485938,
2009-03-12, 01:13:05,VALID,1000.36,VALID,0,VALID,93.7299,VALID,0,VALID,24.2885,VALID,115,VALID,0.580078,
2009-03-12, 01:14:05,VALID,1000.31,VALID,0,VALID,93.7604,VALID,0,VALID,24.269,VALID,115,VALID,0.525,
2009-03-12, 01:15:05,VALID,1000.31,VALID,0,VALID,93.7604,VALID,0,VALID,24.269,VALID,115,VALID,0.376563,
2009-03-12, 01:16:05,VALID,1000.29,VALID,0,VALID,93.7604,VALID,0,VALID,24.2495,VALID,115,VALID,0.297266,
2009-03-12, 01:17:05,VALID,1000.25,VALID,0,VALID,93.7757,VALID,0,VALID,24.2476,VALID,115,VALID,0.113281,
2009-03-12, 01:18:05,VALID,1000.26,VALID,0,VALID,93.7833,VALID,0,VALID,24.2495,VALID,115,VALID,0,
2009-03-12, 01:19:05,VALID,1000.24,VALID,0,VALID,93.7909,VALID,0,VALID,24.2299,VALID,115,VALID,0,
2009-03-12, 01:20:05,VALID,1000.24,VALID,0,VALID,93.8214,VALID,0,VALID,24.2495,VALID,115,VALID,0.153125,
2009-03-12, 01:21:05,VALID,1000.22,VALID,0,VALID,93.8901,VALID,0,VALID,24.2086,VALID,115,VALID,0.189453,
2009-03-12, 01:22:05,VALID,1000.25,VALID,0,VALID,93.913,VALID,0,VALID,24.2299,VALID,115,VALID,0.310937,
2009-03-12, 01:23:05,VALID,1000.25,VALID,0,VALID,93.8977,VALID,0,VALID,24.2513,VALID,115,VALID,0.451562,
2009-03-12, 01:24:05,VALID,1000.23,VALID,0,VALID,93.8596,VALID,0,VALID,24.2299,VALID,115,VALID,0.119141,
2009-03-12, 01:25:05,VALID,1000.19,VALID,0,VALID,93.8596,VALID,0,VALID,24.2086,VALID,115,VALID,0.0863281,
2009-03-12, 01:26:05,VALID,1000.18,VALID,0,VALID,93.8596,VALID,0,VALID,24.2086,VALID,115,VALID,0,
2009-03-12, 01:27:05,VALID,1000.18,VALID,0,VALID,93.8672,VALID,0,VALID,24.2104,VALID,115,VALID,0,
2009-03-12, 01:28:05,VALID,1000.17,VALID,0,VALID,93.8672,VALID,0,VALID,24.1891,VALID,115,VALID,0,
2009-03-12, 01:29:05,VALID,1000.14,VALID,0,VALID,93.8901,VALID,0,VALID,24.1909,VALID,115,VALID,0,
2009-03-12, 01:30:05,VALID,1000.14,VALID,0,VALID,93.9511,VALID,0,VALID,24.1696,VALID,115,VALID,0,
2009-03-12, 01:31:05,VALID,1000.12,VALID,0,VALID,93.974,VALID,0,VALID,24.1909,VALID,115,VALID,0,
2009-03-12, 01:32:05,VALID,1000.14,VALID,0,VALID,93.9893,VALID,0,VALID,24.1696,VALID,115,VALID,0.0617188,
2009-03-12, 01:33:05,VALID,1000.12,VALID,0,VALID,93.9969,VALID,0,VALID,24.1909,VALID,115,VALID,0,
2009-03-12, 01:34:05,VALID,1000.14,VALID,0,VALID,94.0274,VALID,0,VALID,24.15,VALID,115,VALID,0,
2009-03-12, 01:35:05,VALID,1000.15,VALID,0,VALID,94.0885,VALID,0,VALID,24.15,VALID,115,VALID,0,
2009-03-12, 01:36:05,VALID,1000.13,VALID,0,VALID,94.1877,VALID,0,VALID,24.1696,VALID,116,VALID,0.480078,
2009-03-12, 01:37:05,VALID,1000.15,VALID,0,VALID,94.1724,VALID,0,VALID,24.1891,VALID,116,VALID,0.504687,
2009-03-12, 01:38:05,VALID,1000.14,VALID,0,VALID,94.1724,VALID,0,VALID,24.1909,VALID,116,VALID,0.466797,
2009-03-12, 01:39:05,VALID,1000.15,VALID,0,VALID,94.18,VALID,0,VALID,24.1909,VALID,116,VALID,0.536328,
2009-03-12, 01:40:05,VALID,1000.12,VALID,0,VALID,94.18,VALID,0,VALID,24.2104,VALID,116,VALID,0.476563,
2009-03-12, 01:41:05,VALID,1000.09,VALID,0,VALID,94.1648,VALID,0,VALID,24.1909,VALID,116,VALID,0.507031,
2009-03-12, 01:42:05,VALID,1000.1,VALID,0,VALID,94.18,VALID,0,VALID,24.2299,VALID,115,VALID,0.745313,
2009-03-12, 01:43:05,VALID,1000.06,VALID,0,VALID,94.1571,VALID,0,VALID,24.2104,VALID,105,VALID,0.785156,
2009-03-12, 01:44:05,VALID,1000.08,VALID,0,VALID,94.1419,VALID,0,VALID,24.2299,VALID,103,VALID,0.618359,
2009-03-12, 01:45:05,VALID,1000.05,VALID,0,VALID,94.1037,VALID,0,VALID,24.2104,VALID,97,VALID,0.823828,
2009-03-12, 01:46:05,VALID,1000.06,VALID,0,VALID,94.1037,VALID,0,VALID,24.2104,VALID,89,VALID,0.760156,
2009-03-12, 01:47:05,VALID,1000.05,VALID,0,VALID,94.1037,VALID,0,VALID,24.2104,VALID,89,VALID,0.75,
2009-03-12, 01:48:05,VALID,1000.04,VALID,0,VALID,94.0961,VALID,0,VALID,24.1891,VALID,87,VALID,0.614844,
2009-03-12, 01:49:05,VALID,1000.04,VALID,0,VALID,94.0885,VALID,0,VALID,24.1909,VALID,78,VALID,0.502734,
2009-03-12, 01:50:05,VALID,1000.05,VALID,0,VALID,94.0808,VALID,0,VALID,24.1696,VALID,63,VALID,0.650781,
2009-03-12, 01:51:05,VALID,1000.03,VALID,0,VALID,94.0351,VALID,0,VALID,24.1519,VALID,49,VALID,0.610156,
2009-03-12, 01:52:05,VALID,1000.01,VALID,0,VALID,94.0427,VALID,0,VALID,24.111,VALID,46,VALID,0.599609,
2009-03-12, 01:53:05,VALID,1000.02,VALID,0,VALID,94.1037,VALID,0,VALID,24.1324,VALID,45,VALID,0.744922,
2009-03-12, 01:54:05,VALID,999.981,VALID,0,VALID,94.1724,VALID,0,VALID,24.1519,VALID,36,VALID,0.908594,
2009-03-12, 01:55:05,VALID,999.99,VALID,0,VALID,94.2487,VALID,0,VALID,24.1519,VALID,27,VALID,1.04453,
2009-03-12, 01:56:05,VALID,999.977,VALID,0,VALID,94.3174,VALID,0,VALID,24.1519,VALID,34,VALID,1.20547,
2009-03-12, 01:57:05,VALID,999.993,VALID,0,VALID,94.3403,VALID,0,VALID,24.1714,VALID,48,VALID,1.46875,
2009-03-12, 01:58:05,VALID,999.967,VALID,0,VALID,94.3097,VALID,0,VALID,24.1305,VALID,53,VALID,1.34609,
2009-03-12, 01:59:05,VALID,999.945,VALID,0,VALID,94.3403,VALID,0,VALID,24.1519,VALID,42,VALID,1.2875,
2009-03-12, 02:00:05,VALID,999.957,VALID,0,VALID,94.2792,VALID,0,VALID,24.1519,VALID,40,VALID,1.39844,
2009-03-12, 02:01:05,VALID,999.922,VALID,0,VALID,94.2868,VALID,0,VALID,24.1324,VALID,35,VALID,1.16914,
2009-03-12, 02:02:05,VALID,999.929,VALID,0,VALID,94.325,VALID,0,VALID,24.111,VALID,43,VALID,0.894922,
2009-03-12, 02:03:05,VALID,999.886,VALID,0,VALID,94.3403,VALID,0,VALID,24.1324,VALID,52,VALID,0.780078,
2009-03-12, 02:04:05,VALID,999.878,VALID,0,VALID,94.3555,VALID,0,VALID,24.1324,VALID,49,VALID,0.475391,
2009-03-12, 02:05:05,VALID,999.843,VALID,0,VALID,94.3555,VALID,0,VALID,24.1324,VALID,49,VALID,0.761328,
2009-03-12, 02:06:05,VALID,999.831,VALID,0,VALID,94.2792,VALID,0,VALID,24.1128,VALID,47,VALID,0.871094,
2009-03-12, 02:07:05,VALID,999.85,VALID,0,VALID,94.2945,VALID,0,VALID,24.0933,VALID,41,VALID,0.73125,
2009-03-12, 02:08:05,VALID,999.848,VALID,0,VALID,94.2716,VALID,0,VALID,24.0933,VALID,40,VALID,0.912891,
2009-03-12, 02:09:05,VALID,999.839,VALID,0,VALID,94.2182,VALID,0,VALID,24.0738,VALID,51,VALID,1.16797,
2009-03-12, 02:10:04,VALID,999.835,VALID,0,VALID,94.264,VALID,0,VALID,24.0543,VALID,45,VALID,0.745313,
2009-03-12, 02:11:04,VALID,999.849,VALID,0,VALID,94.2029,VALID,0,VALID,24.0543,VALID,37,VALID,0.864453,
2009-03-12, 02:12:04,VALID,999.879,VALID,0,VALID,94.1343,VALID,0,VALID,24.0348,VALID,35,VALID,1.01328,
2009-03-12, 02:13:04,VALID,999.86,VALID,0,VALID,94.1037,VALID,0,VALID,23.9939,VALID,36,VALID,1.02227,
2009-03-12, 02:14:04,VALID,999.877,VALID,0,VALID,94.1495,VALID,0,VALID,23.9957,VALID,29,VALID,0.989453,
2009-03-12, 02:15:04,VALID,999.906,VALID,0,VALID,94.1648,VALID,0,VALID,23.9957,VALID,23,VALID,0.778906,
2009-03-12, 02:16:04,VALID,999.925,VALID,0,VALID,94.1266,VALID,0,VALID,23.9957,VALID,4,VALID,0.923828,
2009-03-12, 02:17:04,VALID,999.957,VALID,0,VALID,94.119,VALID,0,VALID,23.9762,VALID,4,VALID,0.825781,
2009-03-12, 02:18:04,VALID,999.96,VALID,0,VALID,94.0961,VALID,0,VALID,23.9567,VALID,6,VALID,0.726172,
2009-03-12, 02:19:04,VALID,999.966,VALID,0,VALID,94.058,VALID,0,VALID,23.9549,VALID,13,VALID,0.558203,
2009-03-12, 02:20:04,VALID,999.95,VALID,0,VALID,94.0656,VALID,0,VALID,23.9567,VALID,13,VALID,0.208594,
2009-03-12, 02:21:04,VALID,999.97,VALID,0,VALID,94.058,VALID,0,VALID,23.9567,VALID,13,VALID,0.504297,
2009-03-12, 02:22:04,VALID,999.979,VALID,0,VALID,94.0274,VALID,0,VALID,23.9567,VALID,1,VALID,0.724609,
2009-03-12, 02:23:04,VALID,999.988,VALID,0,VALID,94.0656,VALID,0,VALID,23.9567,VALID,356,VALID,0.380469,
2009-03-12, 02:24:04,VALID,999.976,VALID,0,VALID,93.9893,VALID,0,VALID,23.9567,VALID,11,VALID,0.853125,
2009-03-12, 02:25:04,VALID,999.985,VALID,0,VALID,93.9664,VALID,0,VALID,23.9762,VALID,28,VALID,0.666406,
2009-03-12, 02:26:04,VALID,999.952,VALID,0,VALID,93.913,VALID,0,VALID,23.9762,VALID,28,VALID,0.546875,
2009-03-12, 02:27:04,VALID,999.969,VALID,0,VALID,93.9054,VALID,0,VALID,23.9762,VALID,28,VALID,0.3375,
2009-03-12, 02:28:04,VALID,999.938,VALID,0,VALID,93.9206,VALID,0,VALID,23.9762,VALID,28,VALID,0.692187,
2009-03-12, 02:29:04,VALID,999.905,VALID,0,VALID,93.9817,VALID,0,VALID,23.9744,VALID,26,VALID,0.854688,
2009-03-12, 02:30:04,VALID,999.917,VALID,0,VALID,93.9817,VALID,0,VALID,23.9939,VALID,26,VALID,0.816797,
2009-03-12, 02:31:04,VALID,999.893,VALID,0,VALID,93.9893,VALID,0,VALID,23.9939,VALID,24,VALID,0.396875,
2009-03-12, 02:32:04,VALID,999.905,VALID,0,VALID,93.974,VALID,0,VALID,24.0134,VALID,24,VALID,0.50625,
2009-03-12, 02:33:04,VALID,999.891,VALID,0,VALID,93.9664,VALID,0,VALID,24.0348,VALID,24,VALID,0.346484,
2009-03-12, 02:34:04,VALID,999.945,VALID,0,VALID,93.974,VALID,0,VALID,24.0153,VALID,25,VALID,0.533594,
2009-03-12, 02:35:04,VALID,999.932,VALID,0,VALID,93.9893,VALID,0,VALID,24.0153,VALID,34,VALID,0.595312,
2009-03-12, 02:36:04,VALID,999.93,VALID,0,VALID,93.8901,VALID,0,VALID,24.0153,VALID,61,VALID,1.07695,
2009-03-12, 02:37:04,VALID,999.94,VALID,0,VALID,93.8062,VALID,0,VALID,24.0153,VALID,57,VALID,1.21406,
2009-03-12, 02:38:04,VALID,999.958,VALID,0,VALID,93.7299,VALID,0,VALID,24.0153,VALID,51,VALID,0.924609,
2009-03-12, 02:39:04,VALID,999.978,VALID,0,VALID,93.7757,VALID,0,VALID,23.9939,VALID,51,VALID,0.398828,
2009-03-12, 02:40:04,VALID,999.953,VALID,0,VALID,93.7833,VALID,0,VALID,23.9939,VALID,51,VALID,0.311328,
2009-03-12, 02:41:04,VALID,999.982,VALID,0,VALID,93.8062,VALID,0,VALID,24.0153,VALID,50,VALID,0.292188,
2009-03-12, 02:42:04,VALID,999.99,VALID,0,VALID,93.8138,VALID,0,VALID,23.9957,VALID,49,VALID,0.432422,
2009-03-12, 02:43:04,VALID,1000,VALID,0,VALID,93.8062,VALID,0,VALID,23.9939,VALID,49,VALID,0.3375,
2009-03-12, 02:44:04,VALID,1000.03,VALID,0,VALID,93.8443,VALID,0,VALID,24.0153,VALID,48,VALID,0.393359,
2009-03-12, 02:45:04,VALID,1000.02,VALID,0,VALID,93.8672,VALID,0,VALID,24.0348,VALID,37,VALID,0.535156,
2009-03-12, 02:46:04,VALID,1000.03,VALID,0,VALID,93.8443,VALID,0,VALID,24.0348,VALID,33,VALID,0.700781,
2009-03-12, 02:47:04,VALID,1000.01,VALID,0,VALID,93.8825,VALID,0,VALID,24.0348,VALID,32,VALID,0.660156,
2009-03-12, 02:48:04,VALID,1000.03,VALID,0,VALID,93.8138,VALID,0,VALID,24.0348,VALID,30,VALID,0.905859,
2009-03-12, 02:49:04,VALID,1000.02,VALID,0,VALID,93.7223,VALID,0,VALID,24.0348,VALID,30,VALID,1.10859,
2009-03-12, 02:50:04,VALID,1000.01,VALID,0,VALID,93.7757,VALID,0,VALID,24.0348,VALID,32,VALID,0.674609,
2009-03-12, 02:51:04,VALID,1000.02,VALID,0,VALID,93.8596,VALID,0,VALID,24.0543,VALID,31,VALID,0.717969,
2009-03-12, 02:52:04,VALID,1000.03,VALID,0,VALID,93.9054,VALID,0,VALID,24.0525,VALID,33,VALID,0.710938,
2009-03-12, 02:53:04,VALID,1000.01,VALID,0,VALID,93.9588,VALID,0,VALID,24.0738,VALID,25,VALID,0.646484,
2009-03-12, 02:54:04,VALID,1000.02,VALID,0,VALID,93.9283,VALID,0,VALID,24.0738,VALID,16,VALID,0.942969,
2009-03-12, 02:55:04,VALID,1000.03,VALID,0,VALID,93.8901,VALID,0,VALID,24.0329,VALID,18,VALID,0.878906,
2009-03-12, 02:56:04,VALID,1000.04,VALID,0,VALID,93.9817,VALID,0,VALID,24.0738,VALID,18,VALID,0.657812,
2009-03-12, 02:57:04,VALID,1000.02,VALID,0,VALID,93.9283,VALID,0,VALID,24.0329,VALID,16,VALID,1.08555,
2009-03-12, 02:58:04,VALID,1000.04,VALID,0,VALID,93.9206,VALID,0,VALID,24.0348,VALID,11,VALID,1.32813,
2009-03-12, 02:59:04,VALID,1000.06,VALID,0,VALID,93.9206,VALID,0,VALID,24.0134,VALID,9,VALID,1.64766,
2009-03-12, 03:00:04,VALID,1000.08,VALID,0,VALID,94.0656,VALID,0,VALID,24.0348,VALID,16,VALID,1.22891,
2009-03-12, 03:01:04,VALID,1000.06,VALID,0,VALID,94.0885,VALID,0,VALID,24.0348,VALID,28,VALID,1.59336,
2009-03-12, 03:02:04,VALID,1000.07,VALID,0,VALID,94.1648,VALID,0,VALID,24.0153,VALID,27,VALID,1.71484,
2009-03-12, 03:03:04,VALID,1000.05,VALID,0,VALID,94.2334,VALID,0,VALID,23.9939,VALID,17,VALID,1.47539,
2009-03-12, 03:04:04,VALID,1000.05,VALID,0,VALID,94.1571,VALID,0,VALID,24.0153,VALID,14,VALID,1.53945,
2009-03-12, 03:05:04,VALID,1000.04,VALID,0,VALID,94.1419,VALID,0,VALID,23.9957,VALID,18,VALID,1.72617,
2009-03-12, 03:06:04,VALID,1000.05,VALID,0,VALID,94.0045,VALID,0,VALID,23.9762,VALID,7,VALID,1.65313,
2009-03-12, 03:07:04,VALID,1000.06,VALID,0,VALID,93.9511,VALID,0,VALID,23.9567,VALID,360,VALID,0.830078,
2009-03-12, 03:08:04,VALID,1000.07,VALID,0,VALID,93.8291,VALID,0,VALID,23.9567,VALID,351,VALID,2.21211,
2009-03-12, 03:09:04,VALID,1000.06,VALID,0,VALID,93.8062,VALID,0,VALID,23.9549,VALID,4,VALID,1.43164,
2009-03-12, 03:10:04,VALID,1000.06,VALID,0,VALID,93.0127,VALID,0,VALID,23.9177,VALID,4,VALID,2.44766,
2009-03-12, 03:11:04,VALID,1000.04,VALID,0,VALID,93.0051,VALID,0,VALID,23.9354,VALID,345,VALID,2.27891,
2009-03-12, 03:12:04,VALID,1000.07,VALID,0,VALID,92.616,VALID,0,VALID,23.9762,VALID,345,VALID,1.91953,
2009-03-12, 03:13:04,VALID,1000.1,VALID,0,VALID,92.326,VALID,0,VALID,24.0153,VALID,342,VALID,2.14961,
2009-03-12, 03:14:04,VALID,1000.11,VALID,0,VALID,91.4334,VALID,0,VALID,23.9957,VALID,339,VALID,1.62109,
2009-03-12, 03:15:04,VALID,1000.07,VALID,0,VALID,91.1053,VALID,0,VALID,23.9939,VALID,330,VALID,0.676953,
2009-03-12, 03:16:04,VALID,1000.08,VALID,0,VALID,91.296,VALID,0,VALID,24.0543,VALID,344,VALID,1.20586,
2009-03-12, 03:17:04,VALID,1000.09,VALID,0,VALID,91.3418,VALID,0,VALID,24.0738,VALID,323,VALID,1.03789,
2009-03-12, 03:18:04,VALID,1000.06,VALID,0,VALID,90.9909,VALID,0,VALID,24.0525,VALID,341,VALID,1.17031,
2009-03-12, 03:19:04,VALID,1000.07,VALID,0,VALID,91.2426,VALID,0,VALID,24.0525,VALID,347,VALID,0.989062,
2009-03-12, 03:20:04,VALID,1000.06,VALID,0,VALID,91.0214,VALID,0,VALID,24.0738,VALID,5,VALID,1.14531,
2009-03-12, 03:21:04,VALID,1000.03,VALID,0,VALID,91.1206,VALID,0,VALID,24.0525,VALID,10,VALID,1.3625,
2009-03-12, 03:22:04,VALID,1000.07,VALID,0,VALID,91.2655,VALID,0,VALID,24.0525,VALID,29,VALID,1.25234,
2009-03-12, 03:23:04,VALID,1000.07,VALID,0,VALID,91.3494,VALID,0,VALID,24.0738,VALID,16,VALID,1.3,
2009-03-12, 03:24:04,VALID,1000.05,VALID,0,VALID,91.1968,VALID,0,VALID,24.0525,VALID,12,VALID,1.45156,
2009-03-12, 03:25:04,VALID,1000.05,VALID,0,VALID,90.7696,VALID,0,VALID,24.0329,VALID,14,VALID,1.88008,
2009-03-12, 03:26:04,VALID,1000.1,VALID,0,VALID,90.9603,VALID,0,VALID,24.0525,VALID,351,VALID,0.941797,
2009-03-12, 03:27:04,VALID,1000.12,VALID,0,VALID,91.174,VALID,0,VALID,24.072,VALID,323,VALID,0.675391,
2009-03-12, 03:28:04,VALID,1000.12,VALID,0,VALID,90.7238,VALID,0,VALID,24.0738,VALID,328,VALID,1.04648,
2009-03-12, 03:29:04,VALID,1000.14,VALID,0,VALID,91.0824,VALID,0,VALID,24.0933,VALID,281,VALID,0.816406,
2009-03-12, 03:30:04,VALID,1000.16,VALID,0,VALID,91.0977,VALID,0,VALID,24.0738,VALID,277,VALID,1.11094,
2009-03-12, 03:31:04,VALID,1000.16,VALID,0,VALID,90.8917,VALID,0,VALID,24.0329,VALID,268,VALID,1.04883,
2009-03-12, 03:32:04,VALID,1000.15,VALID,0,VALID,90.9909,VALID,0,VALID,24.0348,VALID,240,VALID,0.630859,
2009-03-12, 03:33:04,VALID,1000.11,VALID,0,VALID,91.1129,VALID,0,VALID,23.9939,VALID,207,VALID,0.516406,
2009-03-12, 03:34:04,VALID,1000.13,VALID,0,VALID,91.2197,VALID,0,VALID,23.9744,VALID,243,VALID,0.696484,
2009-03-12, 03:35:04,VALID,1000.11,VALID,0,VALID,91.1816,VALID,0,VALID,23.9762,VALID,274,VALID,0.589844,
2009-03-12, 03:36:04,VALID,1000.1,VALID,0,VALID,91.2579,VALID,0,VALID,23.9354,VALID,270,VALID,0.693359,
2009-03-12, 03:37:04,VALID,1000.09,VALID,0,VALID,91.4715,VALID,0,VALID,23.9177,VALID,262,VALID,0.255078,
2009-03-12, 03:38:04,VALID,1000.04,VALID,0,VALID,91.6394,VALID,0,VALID,23.8982,VALID,262,VALID,0.0136719,
2009-03-12, 03:39:04,VALID,1000.03,VALID,0,VALID,91.441,VALID,0,VALID,23.8982,VALID,262,VALID,0.230859,
2009-03-12, 03:40:04,VALID,1000.07,VALID,0,VALID,91.502,VALID,0,VALID,23.8591,VALID,263,VALID,0.237109,
2009-03-12, 03:41:04,VALID,1000.06,VALID,0,VALID,91.4334,VALID,0,VALID,23.8201,VALID,336,VALID,0.820703,
2009-03-12, 03:42:04,VALID,1000.05,VALID,0,VALID,91.4257,VALID,0,VALID,23.7811,VALID,336,VALID,0.403125,
2009-03-12, 03:43:04,VALID,1000.07,VALID,0,VALID,91.8148,VALID,0,VALID,23.7597,VALID,353,VALID,0.607422,
2009-03-12, 03:44:04,VALID,1000.09,VALID,0,VALID,92.2574,VALID,0,VALID,23.7811,VALID,353,VALID,0.5625,
2009-03-12, 03:45:04,VALID,1000.05,VALID,0,VALID,91.9903,VALID,0,VALID,23.7597,VALID,347,VALID,0.414453,
2009-03-12, 03:46:04,VALID,1000.07,VALID,0,VALID,92.0895,VALID,0,VALID,23.7616,VALID,40,VALID,0.668359,